[[{"header":{"parameterUnit":"m.s-1","parameterCategory":1,"la1":30.2991,"la2":30.254,"lo1":-89.0895,"lo2":-89.0444,"dx":0.0017,"dy":0.0017,"nx":28,"ny":28,"refTime":"2022-12-16T15:00:00:Z","depth":0,"parameterNumber":2,"parameterNumberName":"U-component_of_WINDS"},"data":[0,0,0,0,0,0,0,0,0,0,0,0,0,0,0,0,0,0,0,0,0,0,0,0,0,0,0,0,0,0,0,0,0,0,0,0,0,0,0,0,0,0,0,0,0,0,0,0,0,0,0,0,0,0,0,0,0,0,-0.0421,-0.0421,0,-0.046,-0.0461,-0.0461,-0.0461,-0.046,-0.046,-0.0459,-0.0502,-0.0503,-0.0505,0,0,0,0,0,0,0,0,0,0,0,0,0,-0.0346,-0.0348,-0.0421,-0.0422,-0.0422,-0.046,-0.0461,-0.0462,-0.0461,-0.046,-0.046,-0.0459,-0.0501,-0.0503,-0.0505,0,0,0,0,0,0,0,0,0,0,0,0,0,-0.0382,-0.0348,-0.0421,-0.0426,-0.0427,-0.046,-0.0461,-0.0462,-0.0461,-0.046,-0.0459,-0.0459,-0.0501,-0.0503,-0.0505,-0.0536,0,0,-0.0513,-0.0514,0,0,0,0,0,0,0,0,-0.038,-0.0384,-0.0425,-0.0426,-0.0427,-0.0455,-0.045,-0.0487,-0.0461,-0.0448,-0.0459,-0.0458,-0.0487,-0.049,-0.05,-0.0538,-0.054,-0.0513,-0.0514,-0.0516,-0.0516,0,0,0,0,0,0,0,-0.0377,-0.0383,-0.0437,-0.0426,-0.0427,-0.0427,-0.0431,-0.0457,-0.0472,-0.0449,-0.0449,-0.0454,-0.0487,-0.0497,-0.0501,-0.0541,-0.0513,-0.0515,-0.0517,-0.0518,-0.0606,-0.0607,0,0,0,0,0,0,-0.0373,-0.0381,-0.0435,-0.0438,-0.0401,-0.0429,-0.0434,-0.0447,-0.0471,-0.0474,-0.0455,-0.0454,-0.0494,-0.0498,-0.0502,-0.054,-0.0515,-0.0518,-0.0519,-0.0605,-0.0606,-0.0607,0,0,0,0,0,0,-0.0372,-0.0378,-0.0434,-0.0409,-0.0416,-0.0431,-0.0446,-0.0448,-0.0458,-0.0475,-0.0478,-0.0462,-0.0493,-0.0499,-0.0528,-0.0541,-0.0519,-0.0521,-0.0604,-0.0606,-0.0607,-0.0616,0,0,0,0,0,0,-0.037,-0.0378,-0.0389,-0.0409,-0.0418,-0.0458,-0.0447,-0.0449,-0.0462,-0.0461,-0.0483,-0.0486,-0.0493,-0.0524,-0.053,-0.0544,-0.0523,-0.0603,-0.0605,-0.0606,-0.0614,-0.0617,-0.062,0,0,0,0,0,-0.0367,-0.0391,-0.039,-0.0397,-0.0433,-0.0459,-0.0464,-0.0471,-0.0463,-0.0475,-0.0486,-0.0485,-0.0538,-0.0527,-0.0534,-0.0549,-0.0602,-0.0604,-0.0606,-0.0613,-0.0617,-0.062,0,0,0,0,0,0,-0.0373,-0.0394,-0.0393,-0.0424,-0.044,-0.0459,-0.0475,-0.0475,-0.0493,-0.0492,-0.05,-0.0505,-0.0534,-0.0544,-0.0531,-0.058,-0.0569,-0.0573,-0.0572,-0.0576,-0.0578,-0.0576,-0.0525,0,0,0,0,0,-0.0378,-0.0398,-0.0415,-0.0441,-0.0448,-0.046,-0.0472,-0.0476,-0.0492,-0.0499,-0.0512,-0.0529,-0.055,-0.0563,-0.0583,-0.0615,-0.062,-0.0629,-0.0632,-0.0634,-0.0637,-0.0654,-0.0659,-0.0614,-0.0614,-0.0614,0,0,-0.0389,-0.0402,-0.0414,-0.0442,-0.0455,-0.0475,-0.0466,-0.0488,-0.0503,-0.0503,-0.0531,-0.0541,-0.056,-0.059,-0.0605,-0.06,-0.065,-0.0636,-0.0638,-0.064,-0.0657,-0.0661,-0.0665,-0.0615,-0.0615,-0.0615,0,0,-0.0419,-0.0431,-0.0454,-0.0466,-0.0485,-0.0492,-0.0497,-0.0516,-0.0523,-0.055,-0.0551,-0.0569,-0.0604,-0.0617,-0.0629,-0.0662,-0.0662,-0.0668,-0.0683,-0.07,-0.0703,-0.0706,-0.0718,-0.0723,-0.0671,-0.0671,-0.0671,0,-0.043,-0.046,-0.0466,-0.0487,-0.0499,-0.0499,-0.0522,-0.0534,-0.0559,-0.0567,-0.0561,-0.0604,-0.0617,-0.0651,-0.0659,-0.0668,-0.0674,-0.0667,-0.0702,-0.0705,-0.0709,-0.072,-0.0725,-0.0672,-0.0672,-0.0672,-0.0672,0,-0.0473,-0.0494,-0.051,-0.0532,-0.0546,-0.0569,-0.0577,-0.0591,-0.0593,-0.0601,-0.0629,-0.0644,-0.0667,-0.0674,-0.0677,-0.0708,-0.0705,-0.07,-0.069,-0.0713,-0.0724,-0.0729,-0.0673,-0.0673,-0.0672,-0.0672,0,0,-0.051,-0.0534,-0.054,-0.055,-0.0569,-0.0586,-0.0608,-0.0629,-0.064,-0.0656,-0.0675,-0.0704,-0.07,-0.0713,-0.0717,-0.0732,-0.0757,-0.0725,-0.0726,-0.0731,-0.0792,-0.0795,-0.08,-0.0756,-0.0757,-0.0758,-0.079,0,-0.0542,-0.0581,-0.0586,-0.062,-0.0639,-0.0638,-0.0657,-0.0672,-0.0679,-0.0697,-0.0705,-0.0726,-0.0718,-0.0726,-0.074,-0.0751,-0.0769,-0.0748,-0.0774,-0.0775,-0.077,-0.0806,-0.081,-0.084,-0.0794,-0.0795,-0.0796,0,-0.0586,-0.0602,-0.0638,-0.0654,-0.0663,-0.068,-0.0699,-0.0716,-0.0731,-0.0736,-0.0749,-0.0751,-0.0774,-0.0762,-0.0793,-0.0779,-0.079,-0.0796,-0.0797,-0.0801,-0.0788,-0.0811,-0.085,-0.0855,-0.0802,-0.0802,-0.0801,0,-0.0609,-0.064,-0.0666,-0.0674,-0.0694,-0.0706,-0.0715,-0.073,-0.0742,-0.0758,-0.0766,-0.0786,-0.0797,-0.0812,-0.0819,-0.0809,-0.085,-0.0838,-0.0855,-0.0854,-0.0864,-0.0864,-0.0906,-0.087,-0.087,-0.087,-0.0869,0,-0.0645,-0.0668,-0.0677,-0.0692,-0.0717,-0.0722,-0.0746,-0.0755,-0.0768,-0.0785,-0.0786,-0.0802,-0.081,-0.0827,-0.0833,-0.0858,-0.0863,-0.0867,-0.0869,-0.0868,-0.0867,-0.0876,-0.0874,-0.0871,-0.0871,-0.087,-0.087,0,-0.0676,-0.0683,-0.0711,-0.0727,-0.0731,-0.0748,-0.0762,-0.0777,-0.0784,-0.0806,-0.0811,-0.0822,-0.0843,-0.0851,-0.0876,-0.088,-0.0909,-0.0909,-0.0904,-0.0904,-0.092,-0.0919,-0.097,-0.0977,-0.0936,-0.0936,-0.0936,0,-0.0699,-0.0716,-0.0733,-0.0745,-0.0753,-0.0772,-0.0784,-0.0789,-0.0801,-0.082,-0.0833,-0.0853,-0.087,-0.0903,-0.0913,-0.0932,-0.0933,-0.0949,-0.0936,-0.0934,-0.0933,-0.0933,-0.0934,-0.0952,-0.0953,-0.0953,-0.0953,0,-0.074,-0.0742,-0.0759,-0.0777,-0.0791,-0.0805,-0.0819,-0.0829,-0.0836,-0.085,-0.087,-0.0883,-0.0908,-0.0928,-0.0948,-0.0957,-0.0957,-0.0957,-0.0962,-0.0962,-0.0958,-0.0961,-0.0911,-0.0956,-0.0956,-0.0956,-0.0956,-0.0955,-0.0768,-0.0783,-0.0796,-0.0815,-0.0826,-0.0839,-0.0854,-0.0862,-0.0879,-0.0899,-0.0901,-0.0923,-0.0938,-0.0964,-0.0973,-0.0991,-0.0987,-0.0994,-0.0996,-0.0997,-0.0999,-0.0955,-0.0994,-0.0994,-0.0994,-0.0994,-0.0994,0,-0.0808,-0.0817,-0.0834,-0.0853,-0.0867,-0.0864,-0.0879,-0.0892,-0.0911,-0.0924,-0.094,-0.0963,-0.0983,-0.0994,-0.1013,-0.1025,-0.1025,-0.103,-0.103,-0.1032,-0.1001,-0.0995,-0.1029,-0.1029,-0.1029,-0.1029,-0.1029,-0.1029,-0.0831,-0.0856,-0.086,-0.0889,-0.0898,-0.0919,-0.0928,-0.094,-0.095,-0.0976,-0.0991,-0.0998,-0.1011,-0.103,-0.1048,-0.1051,-0.1058,-0.1063,-0.1066,-0.1037,-0.1034,-0.103,-0.1025,-0.1065,-0.1065,-0.1095,-0.1095,-0.1095]},{"header":{"parameterUnit":"m.s-1","parameterCategory":1,"la1":30.2991,"la2":30.254,"lo1":-89.0895,"lo2":-89.0444,"dx":0.0017,"dy":0.0017,"nx":28,"ny":28,"refTime":"2022-12-16T15:00:00:Z","depth":0,"parameterNumber":3,"parameterNumberName":"V-component_of_WINDS"},"data":[0,0,0,0,0,0,0,0,0,0,0,0,0,0,0,0,0,0,0,0,0,0,0,0,0,0,0,0,0,0,0,0,0,0,0,0,0,0,0,0,0,0,0,0,0,0,0,0,0,0,0,0,0,0,0,0,0,0,-6.2066,-6.2067,0,-6.2183,-6.2184,-6.2185,-6.2134,-6.2131,-6.2128,-6.2126,-6.224,-6.2246,-6.2251,0,0,0,0,0,0,0,0,0,0,0,0,0,-6.1794,-6.18,-6.2066,-6.2067,-6.2069,-6.2183,-6.2184,-6.2186,-6.2135,-6.2131,-6.2128,-6.2124,-6.2238,-6.2245,-6.2252,0,0,0,0,0,0,0,0,0,0,0,0,0,-6.1912,-6.1801,-6.2066,-6.2057,-6.2058,-6.2182,-6.2184,-6.2186,-6.2135,-6.2131,-6.2127,-6.2123,-6.2236,-6.2244,-6.2253,-6.2391,0,0,-6.2279,-6.2282,0,0,0,0,0,0,0,0,-6.1905,-6.1922,-6.2057,-6.2058,-6.2059,-6.214,-6.213,-6.2255,-6.2136,-6.2106,-6.2126,-6.2121,-6.221,-6.222,-6.2251,-6.2396,-6.2401,-6.2279,-6.2285,-6.2288,-6.2291,0,0,0,0,0,0,0,-6.1897,-6.1916,-6.2112,-6.2059,-6.206,-6.2046,-6.2058,-6.2154,-6.218,-6.2108,-6.2105,-6.2119,-6.2209,-6.2243,-6.2253,-6.2403,-6.2279,-6.2287,-6.2292,-6.2295,-6.2667,-6.2672,0,0,0,0,0,0,-6.189,-6.191,-6.2108,-6.2115,-6.197,-6.2054,-6.2068,-6.2118,-6.2179,-6.2184,-6.2123,-6.2117,-6.2231,-6.2244,-6.2257,-6.2423,-6.2288,-6.2296,-6.2301,-6.2662,-6.2668,-6.2673,0,0,0,0,0,0,-6.1884,-6.1908,-6.2104,-6.2012,-6.2036,-6.2064,-6.212,-6.2122,-6.2156,-6.219,-6.2194,-6.2153,-6.2228,-6.2245,-6.2358,-6.2427,-6.23,-6.2308,-6.2657,-6.2664,-6.2671,-6.2757,0,0,0,0,0,0,-6.1877,-6.1906,-6.196,-6.2014,-6.2041,-6.2205,-6.2125,-6.2128,-6.2172,-6.2165,-6.2219,-6.2224,-6.2226,-6.2346,-6.2367,-6.2436,-6.2315,-6.2651,-6.266,-6.2668,-6.2748,-6.2766,-6.2781,0,0,0,0,0,-6.1867,-6.1978,-6.1963,-6.1987,-6.2109,-6.2209,-6.2224,-6.2225,-6.2177,-6.2231,-6.2253,-6.2223,-6.2416,-6.2358,-6.2381,-6.2454,-6.2646,-6.2657,-6.2668,-6.274,-6.2762,-6.2781,0,0,0,0,0,0,-6.193,-6.1985,-6.1969,-6.2101,-6.2151,-6.22,-6.2267,-6.2248,-6.2311,-6.2301,-6.2298,-6.2311,-6.2428,-6.2452,-6.2386,-6.2591,-6.2524,-6.254,-6.2571,-6.2592,-6.2609,-6.26,-6.2322,0,0,0,0,0,-6.196,-6.2038,-6.2081,-6.2193,-6.2219,-6.224,-6.2283,-6.2279,-6.233,-6.235,-6.238,-6.2429,-6.25,-6.2547,-6.2615,-6.2751,-6.2762,-6.2813,-6.2829,-6.2843,-6.2856,-6.293,-6.2953,-6.2708,-6.2708,-6.2708,0,0,-6.2021,-6.2061,-6.211,-6.2207,-6.2245,-6.2324,-6.2257,-6.2344,-6.2402,-6.2362,-6.2472,-6.2496,-6.255,-6.2675,-6.2732,-6.2699,-6.2927,-6.2856,-6.2867,-6.2873,-6.2943,-6.2967,-6.2987,-6.2715,-6.2714,-6.2713,0,0,-6.2174,-6.2212,-6.231,-6.235,-6.2409,-6.2422,-6.2446,-6.2498,-6.2513,-6.2623,-6.2595,-6.2664,-6.2787,-6.2827,-6.2864,-6.3033,-6.3007,-6.3054,-6.3142,-6.3213,-6.3233,-6.325,-6.331,-6.3331,-6.3068,-6.3068,-6.3068,0,-6.2242,-6.2362,-6.2363,-6.2452,-6.2496,-6.2465,-6.2564,-6.2602,-6.268,-6.271,-6.2672,-6.2828,-6.2862,-6.2996,-6.3038,-6.3068,-6.3094,-6.3048,-6.323,-6.3247,-6.3263,-6.332,-6.3343,-6.3074,-6.3073,-6.3072,-6.3072,0,-6.2443,-6.2527,-6.2599,-6.2677,-6.2728,-6.2822,-6.2836,-6.2887,-6.2879,-6.2896,-6.3008,-6.3048,-6.3124,-6.3155,-6.3148,-6.3289,-6.3267,-6.323,-6.3162,-6.3292,-6.3346,-6.3368,-6.3081,-6.3079,-6.3078,-6.3076,0,0,-6.2638,-6.2717,-6.2743,-6.2778,-6.2842,-6.2906,-6.2997,-6.3073,-6.3118,-6.3172,-6.3249,-6.3354,-6.3321,-6.3363,-6.3359,-6.3422,-6.3554,-6.3378,-6.3379,-6.3409,-6.3711,-6.3739,-6.3764,-6.3537,-6.3541,-6.3544,-6.3707,0,-6.2795,-6.2959,-6.2962,-6.3111,-6.3188,-6.3161,-6.3241,-6.3288,-6.3306,-6.3372,-6.3391,-6.3466,-6.3417,-6.3442,-6.3503,-6.3525,-6.3614,-6.3513,-6.3607,-6.361,-6.3594,-6.3792,-6.3821,-6.3972,-6.3728,-6.3731,-6.3734,0,-6.3001,-6.3064,-6.3222,-6.3275,-6.3307,-6.3379,-6.345,-6.3514,-6.3566,-6.3575,-6.3622,-6.3609,-6.3701,-6.3631,-6.3758,-6.3689,-6.3728,-6.3744,-6.375,-6.3759,-6.368,-6.3806,-6.4021,-6.4043,-6.3767,-6.3764,-6.3762,0,-6.3127,-6.3252,-6.3363,-6.3393,-6.3458,-6.351,-6.3538,-6.3587,-6.3632,-6.3693,-6.3722,-6.3792,-6.383,-6.3884,-6.389,-6.3839,-6.4018,-6.3948,-6.4026,-6.4026,-6.4065,-6.4062,-6.4289,-6.409,-6.409,-6.4089,-6.4089,0,-6.3303,-6.34,-6.3421,-6.3488,-6.3596,-6.3599,-6.3705,-6.373,-6.3773,-6.3844,-6.3824,-6.3891,-6.3895,-6.3963,-6.3968,-6.4072,-6.4089,-6.4098,-6.4098,-6.41,-6.4099,-6.4125,-6.4114,-6.4095,-6.4094,-6.4093,-6.4092,0,-6.3462,-6.348,-6.3599,-6.3651,-6.3666,-6.3744,-6.3787,-6.3852,-6.3868,-6.3958,-6.3979,-6.4004,-6.4083,-6.4095,-6.4187,-6.4191,-6.4316,-6.4305,-6.4299,-6.4297,-6.4375,-6.4368,-6.4626,-6.466,-6.4439,-6.4441,-6.4443,0,-6.3573,-6.3648,-6.3709,-6.3756,-6.3788,-6.3864,-6.3911,-6.3916,-6.3966,-6.4032,-6.4088,-6.4166,-6.4228,-6.4356,-6.4381,-6.4451,-6.4442,-6.4528,-6.4452,-6.4452,-6.4443,-6.4439,-6.4446,-6.4542,-6.4544,-6.4546,-6.4548,0,-6.3768,-6.3773,-6.3843,-6.3916,-6.3973,-6.4031,-6.4085,-6.4124,-6.4136,-6.4192,-6.4274,-6.4323,-6.4418,-6.4496,-6.4566,-6.4593,-6.4573,-6.4572,-6.4593,-6.4596,-6.459,-6.4594,-6.4338,-6.4565,-6.4564,-6.4562,-6.4561,-6.4561,-6.3906,-6.3972,-6.4025,-6.4103,-6.4145,-6.4196,-6.426,-6.4285,-6.4354,-6.4433,-6.4431,-6.4522,-6.4571,-6.4664,-6.4696,-6.4766,-6.4738,-6.4769,-6.4777,-6.4785,-6.4793,-6.4579,-6.4778,-6.4778,-6.4777,-6.4777,-6.4777,0,-6.41,-6.4133,-6.4206,-6.4283,-6.4344,-6.4322,-6.438,-6.4433,-6.4513,-6.4562,-6.4625,-6.4719,-6.4794,-6.4826,-6.4899,-6.4948,-6.4941,-6.4967,-6.4963,-6.497,-6.4814,-6.4788,-6.4972,-6.4972,-6.4972,-6.4972,-6.4972,-6.4972,-6.4208,-6.4318,-6.4329,-6.4459,-6.4491,-6.4581,-6.4616,-6.4663,-6.4703,-6.481,-6.4873,-6.4893,-6.4935,-6.5012,-6.5079,-6.5086,-6.5114,-6.5145,-6.5148,-6.5001,-6.4981,-6.4962,-6.4938,-6.5151,-6.5151,-6.5298,-6.53,-6.5301]}]]